Home > Weather > Bukavu > Past weeks

Flag for Congo Dem. Rep. Past Weather in Bukavu, Congo Dem. Rep. — Yesterday and Last 2 Weeks

Now
66 °F

Partly cloudy.


Feels Like: 66 °F
Forecast: 54 / 72 °F
Wind: 3 mph from Northwest

Location: Kigali Airport

Current Time: May 31, 2016 at 4:08:07 AM

Latest Report: May 31, 2016 at 3:00 AM


Visibility: N/A

Pressure: 30.15 "Hg (24.68 "Hg at 1710m altitude)

Humidity: 83%

Dew Point: 61 °F

Location of BukavuLocation

Past Weather in Bukavu — Graph

°F

Bukavu Temperature Yesterday

Maximum temperature yesterday: 79 °F (at 2:30 PM)
Minimum temperature yesterday: 66 °F (at 5:00 AM)
Average temperature yesterday: 72 °F

High & Low Weather Summary for the Past Weeks

 TemperatureHumidityPressure
High82 °F (May 25, 3:30 PM)94% (May 17, 4:00 AM)30.30 "Hg (May 17, 4:00 AM)
Low61 °F (May 17, 4:00 AM)40% (May 25, 3:30 PM)30.07 "Hg (May 17, 3:00 PM)
Average72 °F66%30.18 "Hg
* Reported May 16 6:00 AM — May 31 2:30 AM, Bukavu, Weather by CustomWeather, © 2016

Note: Actual official high and low records may vary slightly from our data, if they occured in-between our weather recording intervals... More about our weather records

Advertising

Bukavu Weather History for the Previous 24 Hours

Scroll right to see more
 ConditionsComfort  
Time TempWeatherWind HumidityBarometerVisibility
2:30 AM
Tue, May 31
68 °FPartly cloudy.3 mph78%30.15 "HgN/A
1:30 AM68 °FPassing clouds.2 mph78%30.15 "HgN/A
11:00 PM
Mon, May 30
70 °FPassing clouds.2 mph73%30.18 "HgN/A
10:30 PM70 °FPassing clouds.3 mph73%30.18 "HgN/A
9:00 PM72 °FPassing clouds.2 mph65%30.15 "HgN/A
8:00 PM72 °FPassing clouds.3 mph65%30.15 "HgN/A
7:00 PM72 °FPassing clouds.6 mph65%30.12 "HgN/A
6:00 PM75 °FPassing clouds.5 mph54%30.09 "HgN/A
5:00 PM77 °FScattered clouds.3 mph54%30.09 "HgN/A
4:00 PM79 °FScattered clouds.6 mph48%30.09 "HgN/A
3:30 PM79 °FScattered clouds.6 mph51%30.09 "HgN/A
3:00 PM79 °FScattered clouds.5 mph51%30.09 "HgN/A
2:30 PM79 °FScattered clouds.5 mph51%30.09 "HgN/A
1:00 PM77 °FScattered clouds.5 mph54%30.15 "HgN/A
12:00 PM73 °FBroken clouds.7 mph65%30.18 "HgN/A
11:00 AM73 °FBroken clouds.5 mph61%30.18 "HgN/A
10:00 AM73 °FMild.N/A65%30.21 "HgN/A
9:00 AM70 °FBroken clouds.6 mph73%30.21 "HgN/A
8:00 AM68 °FBroken clouds.1 mph83%30.21 "HgN/A
7:30 AM66 °FBroken clouds.1 mph88%30.21 "HgN/A
6:30 AM66 °FBroken clouds.No wind83%30.18 "HgN/A
6:00 AM66 °FScattered clouds.No wind83%30.18 "HgN/A
5:00 AM66 °FPassing clouds.2 mph83%30.15 "HgN/A
Weather by CustomWeather, © 2016

See weather overviewHow to use our weather pages